Location: Chicoutimi
(48.4330°N, 71.0670°W)
Time: 13:53:07
(UTC-04:00)

ISS - Visible Passes

Search period start: 30 September 2014 00:00
Search period end: 10 October 2014 00:00
Orbit: 413 x 416 km, 51.6° (Epoch: 30 September)

Date Brightness Start Highest point End Pass type
(mag) Time Alt. Az. Time Alt. Az. Time Alt. Az.
30 Sep -2.0 04:51:46 29° S 04:51:46 29° S 04:53:51 10° SE visible
01 Oct -1.0 05:38:22 11° SW 05:38:22 11° SW 05:38:51 10° SSW visible
06 Oct -1.1 19:50:48 10° S 19:51:42 15° S 19:51:42 15° S visible
07 Oct -1.2 19:02:48 10° SSE 19:04:13 12° SE 19:04:59 12° ESE visible
07 Oct -0.7 20:37:04 10° SW 20:37:52 16° SW 20:37:52 16° SW visible
08 Oct -2.7 19:48:01 10° SW 19:50:58 40° SSE 19:50:58 40° SSE visible
09 Oct -2.0 18:59:09 10° SSW 19:01:59 26° SE 19:03:56 16° E visible
09 Oct -1.3 20:35:07 10° WSW 20:36:47 27° W 20:36:47 27° W visible
